{"data":{"norad_id":49026,"epoch":"2026-09-20T20:23:04.841376Z","epoch_age_seconds":71180,"freshness":"FRESH","line1":"1 49026U 21065A   26263.84936159  .00001604  00000+0  11887-3 0  9997","line2":"2 49026  34.9935  49.8512 0005139 271.4497  88.5623 15.03031650283040","mean_motion":15.0303165,"eccentricity":0.0005139,"inclination_deg":34.9935,"raan_deg":49.8512,"arg_perigee_deg":271.4497,"mean_anomaly_deg":88.5623,"bstar":0.00011887,"rev_number":28304,"period_min":95.806365754174,"perigee_km":553.99008845153,"apogee_km":561.11859201102,"semimajor_km":6935.6913402313,"source":"CELESTRAK","updated_at":"2026-09-21T09:00:07.941867Z"}}